Tracking 19634 objects as of 23-May-2019
HD Live streaming from Space Station
objects crossing your sky now

COSMOS 1755

Track COSMOS 1755 now!
10-day predictions
COSMOS 1755 is classified as:


NORAD ID: 16765
Int'l Code: 1986-042H
Perigee: 1,430.5 km
Apogee: 1,476.9 km
Inclination: 74.0 °
Period: 114.8 minutes
Semi major axis: 7824 km
RCS: 0.6969 m2 (medium)
Launch date: June 6, 1986
Source: Commonwealth of Independent States (former USSR) (CIS)
Launch site: PLESETSK MISSILE AND SPACE COMPLEX (PKMTR)
aabbcc
Your satellite tracking list
Your tracking list is empty




NASA's NSSDC Master Catalog

Two Line Element Set (TLE):
1 16765U 86042H   19143.11157302 -.00000007  00000-0  59197-4 0  9996
2 16765  74.0208  25.9592 0029653 243.1478 228.1679 12.54297992509430
Source of the keplerian elements: AFSPC